This is the latest recevied weather packets stored in our database for station/object NK7E-2. If no packets are shown the sender has not sent any weather packets the latest 10 day(s).
| Time | Temp. | Humidity | Pressure | Rain* | Wind** | Luminosity | Snow |
|---|---|---|---|---|---|---|---|
| 1777185917 | 20.56° C | 20% | 1017.7 hPa | 0 mm | - | - | - |
| 1777185317 | 21.11° C | 20% | 1017.7 hPa | 0 mm | - | - | - |
| 1777184717 | 20.56° C | 21% | 1017.8 hPa | 0 mm | - | - | - |
| 1777184117 | 21.11° C | 22% | 1017.7 hPa | 0 mm | - | - | - |
| 1777183517 | 21.11° C | 23% | 1017.8 hPa | 0 mm | - | - | - |
| 1777182917 | 21.11° C | 23% | 1017.8 hPa | 0 mm | - | - | - |
| 1777182317 | 21.11° C | 24% | 1017.9 hPa | 0 mm | - | - | - |
| 1777181717 | 21.67° C | 24% | 1017.9 hPa | 0 mm | - | - | - |
| 1777181117 | 21.67° C | 25% | 1018.2 hPa | 0 mm | - | - | - |
| 1777180517 | 21.67° C | 25% | 1018.1 hPa | 0 mm | - | - | - |
| 1777179917 | 21.67° C | 25% | 1018.2 hPa | 0 mm | - | - | - |
| 1777179317 | 21.67° C | 25% | 1018.2 hPa | 0 mm | - | - | - |
| 1777178717 | 22.22° C | 24% | 1018.3 hPa | 0 mm | - | - | - |
| 1777178117 | 22.22° C | 24% | 1018.4 hPa | 0 mm | - | - | - |
| 1777177517 | 22.22° C | 23% | 1018.3 hPa | 0 mm | - | - | - |
| 1777176917 | 22.22° C | 23% | 1018.2 hPa | 0 mm | - | - | - |
| 1777176317 | 22.22° C | 23% | 1018.2 hPa | 0 mm | - | - | - |
| 1777175717 | 21.67° C | 23% | 1017.7 hPa | 0 mm | - | - | - |
| 1777175117 | 22.22° C | 21% | 1017.7 hPa | 0 mm | - | - | - |
| 1777174517 | 22.22° C | 21% | 1017.8 hPa | 0 mm | - | - | - |
| 1777173917 | 22.78° C | 21% | 1017.7 hPa | 0 mm | - | - | - |
| 1777173317 | 22.78° C | 21% | 1017.9 hPa | 0 mm | - | - | - |
| 1777172717 | 22.78° C | 21% | 1017.5 hPa | 0 mm | - | - | - |
| 1777172117 | 22.78° C | 21% | 1017.5 hPa | 0 mm | - | - | - |
| 1777171517 | 23.33° C | 20% | 1017.3 hPa | 0 mm | - | - | - |
* Rain latest hour (hover to see other rain measurements)
** Current wind speed in m/s (hover to see current wind gust speed)